SCP
0 0 0 0 0 0 0 0 0 0 0 0 0 0 0 0 0 1 1 1 1 1 1 1 1 1 1 1 1 1 1 1 1 1 1 1 1 1 1 1 1 1 1
0 0 0 0 0 0 0 0 0 0 0 0 0 0 0 0 0 0 1 1 1 1 1 1 1 1 1 1 1 1 1 1 1 1 1 1 1 1 1 1 1 1 1
0 0 0 0 0 0 0 0 0 0 0 0 0 0 0 0 0 0 1 1 1 1 1 1 1 1 1 1 1 1 1 0 0 0 1 1 1 1 1 1 1 1 1
0 0 0 0 0 0 0 0 0 0 0 0 0 0 0 0 0 0 1 1 1 1 1 1 1 1 1 1 1 1 0 0 0 0 1 1 1 1 1 1 1 1 1
0 0 0 0 0 0 0 0 0 0 0 0 0 0 0 1 1 1 1 1 1 1 1 1 1 1 1 1 1 1 1 1 1 1 1 1 1 1 1 1 1 1 1
0 0 0 0 0 0 0 0 0 0 0 0 0 0 0 1 1 1 1 1 1 1 1 1 1 1 1 1 1 1 1 1 1 1 1 1 1 1 1 1 1 1 1
0 0 0 0 0 0 0 0 0 0 0 0 0 0 0 0 1 1 1 1 1 1 1 1 1 1 1 1 1 1 1 1 1 1 1 1 1 1 1 1 1 1 1
0 0 0 0 0 0 0 0 0 0 0 0 0 0 0 0 0 1 1 1 1 1 1 1 1 1 0 0 0 1 1 1 1 1 1 1 1 1 1 1 1 1 1
0 0 0 0 0 0 0 0 0 0 0 0 0 0 0 0 0 0 1 1 1 1 1 1 1 1 0 0 0 0 0 0 1 1 1 1 1 1 1 1 1 1 2
0 0 0 0 0 0 0 0 0 0 0 0 0 0 0 0 0 0 0 1 1 1 1 1 1 1 1 1 0 0 0 0 1 1 1 1 1 1 2 2 1 1 2
0 0 0 0 0 0 0 0 0 0 0 0 0 0 0 0 0 0 0 0 1 1 1 1 1 1 1 1 0 0 0 0 1 1 1 1 1 2 2 2 2 2 2
0 0 0 0 0 0 0 0 0 0 0 0 0 0 0 0 0 0 0 0 0 1 1 1 1 1 1 1 0 0 0 0 0 0 1 1 1 2 2 2 2 3 4
0 0 0 0 0 0 0 0 0 0 0 0 0 0 0 0 0 0 0 0 0 0 0 1 1 1 1 1 0 0 0 0 0 0 0 1 1 1 1 1 2 3 5
0 0 0 0 0 0 0 0 0 0 0 0 0 0 0 0 0 0 0 0 0 0 0 0 0 1 1 1 0 0 0 0 0 0 0 0 0 1 1 1 1 2 4
0 0 0 0 0 0 0 0 0 0 0 0 0 0 0 0 0 0 0 0 0 0 0 0 0 1 1 1 0 0 0 0 0 0 0 0 0 0 0 0 1 1 2
0 0 0 0 0 0 0 0 0 0 0 0 0 0 0 0 0 0 0 0 0 0 0 0 0 0 0 0 0 0 0 0 0 0 0 0 0 0 0 0 0 0 0
0 0 0 0 0 0 0 0 0 0 0 0 0 0 0 0 0 0 0 0 0 0 0 0 0 0 0 0 0 0 0 0 0 0 0 0 0 0 0 0 0 0 0
0 0 0 0 0 0 0 0 0 0 0 0 0 0 0 0 0 0 0 0 0 0 0 0 0 0 0 0 0 0 0 0 0 0 0 0 0 0 0 0 0 0 0
0 0 0 0 0 0 0 0 0 0 0 0 0 0 0 0 0 0 0 0 0 0 0 0 0 0 0 0 0 0 0 0 0 0 0 0 0 0 0 0 0 0 0
0 0 0 0 0 0 0 0 0 0 0 0 0 0 0 0 0 0 0 0 0 0 0 0 0 0 0 0 0 0 0 0 0 0 0 0 0 0 0 0 0 0 0
0 0 0 0 0 0 0 0 0 0 0 0 0 0 0 0 0 0 0 0 0 0 0 0 0 0 0 0 0 0 0 0 0 0 0 0 0 0 0 0 0 0 0
0 0 0 0 0 0 0 0 0 0 0 0 0 0 0 0 0 0 0 0 0 0 0 0 0 0 0 0 0 0 0 0 0 0 0 0 0 0 0 0 0 0 0
0 0 0 0 0 0 0 0 0 0 0 0 0 0 0 0 0 0 0 0 0 0 0 0 0 0 0 0 0 0 0 0 0 0 0 0 0 0 0 0 0 0 0
0 0 0 0 0 0 0 0 0 0 0 0 0 0 0 0 0 0 0 0 0 0 0 0 0 0 0 0 0 0 0 0 0 0 0 0 0 0 0 0 0 0 0
0 0 0 0 0 0 0 0 0 0 0 0 0 0 0 0 0 0 0 0 0 0 0 0 0 0 0 0 0 0 0 0 0 0 0 0 0 0 0 0 0 0 0
0 0 0 0 0 0 0 0 0 0 0 0 0 0 0 0 0 0 0 0 0 0 0 0 0 0 0 0 0 0 0 0 0 0 0 0 0 0 0 0 0 0 0
Wind_Speed
2 2 2 2 2 2 2 2 3 3 4 4 4 4 3 3 3 3 3 5 6 5 4 4 4 4 5 4 5 5 5 4 5 5 5 4 4 3 3 2 2 4 5
3 3 3 3 2 2 2 2 3 3 2 2 4 4 4 3 2 2 2 3 5 5 4 4 4 4 4 4 4 5 5 4 5 5 4 4 3 2 2 2 2 3 5
4 3 3 2 3 3 3 3 3 3 3 2 3 3 3 3 2 2 2 2 3 3 3 4 4 4 4 4 4 4 5 4 4 4 4 3 3 2 1 2 2 3 5
5 4 3 3 4 3 3 2 2 2 3 3 2 2 2 2 3 2 1 2 2 2 3 4 4 4 4 4 4 4 4 4 3 3 3 2 2 2 1 2 3 3 4
5 4 3 3 4 4 3 4 4 3 2 3 1 1 1 2 2 3 3 2 2 2 2 4 4 3 3 4 3 3 3 3 2 2 2 2 2 2 1 2 3 4 5
5 4 3 4 4 3 4 3 4 3 2 2 3 2 1 1 2 2 3 3 2 2 2 2 2 2 4 4 3 3 3 2 2 1 1 2 1 1 1 2 3 4 5
5 4 3 3 3 3 4 4 3 4 3 2 2 2 2 2 2 2 2 2 2 2 2 2 2 2 2 4 3 3 3 2 1 1 1 1 1 1 0 1 3 4 6
4 4 4 3 3 3 4 4 4 3 3 3 2 2 2 3 3 2 1 2 2 2 2 3 2 2 2 2 3 4 3 2 1 1 1 1 0 1 1 1 3 4 5
4 4 4 3 2 2 2 3 3 4 3 3 3 2 2 1 2 2 2 2 2 2 2 2 3 3 3 3 2 3 3 2 2 0 1 1 1 1 1 1 2 4 5
3 3 3 3 3 2 2 3 3 2 2 2 2 2 1 1 0 1 3 2 2 2 2 3 3 3 3 3 3 4 4 4 4 2 1 1 1 1 1 1 2 3 4
2 2 2 2 3 3 3 4 3 3 2 2 2 2 2 2 1 1 1 2 3 2 2 2 2 2 2 2 2 3 3 3 4 3 2 1 0 1 1 3 3 4 4
2 3 3 3 3 3 3 3 2 3 3 3 3 2 2 2 2 2 1 1 1 2 1 1 1 1 1 2 3 4 4 3 4 4 4 3 3 2 3 2 3 4 4
2 3 3 3 3 3 3 3 3 3 2 2 2 2 2 2 2 1 1 1 2 2 1 1 1 1 1 2 2 3 2 2 2 2 3 3 3 3 4 2 2 3 3
2 2 3 3 4 4 4 3 3 3 3 3 3 3 2 2 2 2 1 1 2 2 2 1 1 2 1 1 1 1 1 1 0 1 2 3 3 3 4 3 2 2 3
2 3 3 3 3 3 3 3 3 3 3 3 3 3 2 2 2 2 2 1 1 1 2 2 2 2 1 1 0 0 0 1 1 2 2 2 3 3 3 4 3 3 3
3 2 3 3 3 3 3 3 3 3 4 3 2 3 3 2 2 2 1 1 1 0 1 2 1 1 1 2 1 1 1 1 2 3 2 3 3 4 4 4 4 4 4
2 2 2 3 3 3 3 3 3 3 3 3 3 3 3 3 2 2 2 2 1 1 1 2 2 1 2 1 1 2 1 1 1 3 3 3 4 4 4 4 4 4 4
2 2 3 3 3 3 3 3 3 3 3 3 3 3 3 3 4 3 3 2 2 1 1 2 3 2 2 2 1 2 2 2 2 3 4 4 4 4 4 5 5 5 5
2 2 2 2 3 3 3 3 3 3 3 3 3 3 3 3 4 3 3 3 3 3 2 2 3 2 2 2 2 2 2 2 3 3 4 4 5 5 6 5 5 5 5
2 2 2 2 3 4 4 5 5 4 4 4 4 4 4 4 4 4 4 4 4 3 3 2 3 3 2 3 1 2 2 2 3 3 3 3 5 6 6 6 6 6 6
3 3 2 3 3 3 4 5 5 5 4 4 3 3 3 4 5 4 4 4 4 3 3 2 3 3 3 3 3 2 3 3 3 2 2 2 2 3 4 6 7 7 7
2 3 2 3 3 4 6 7 6 4 4 3 3 3 3 3 4 5 6 6 5 3 3 2 2 3 4 4 3 3 3 3 4 2 1 3 2 3 3 3 6 8 9
1 2 2 2 3 3 5 6 7 4 4 3 3 2 3 5 6 4 5 5 5 7 6 4 3 4 4 4 3 4 4 4 5 4 2 4 3 4 4 4 7 9 10
1 1 1 2 2 2 4 5 7 5 3 3 3 3 3 4 6 7 5 5 4 5 6 4 3 5 5 4 4 5 5 5 5 4 3 4 4 4 5 4 7 9 10
1 0 0 0 1 1 3 5 6 4 3 2 3 4 4 3 8 10 6 5 5 5 7 8 9 9 10 10 7 3 3 3 5 5 3 3 4 4 4 4 5 8 9
0 1 1 0 1 2 3 4 5 3 4 3 2 2 4 5 8 9 5 4 5 6 7 8 8 8 7 7 8 3 2 3 4 5 3 2 4 3 4 3 3 3 4
Wind_Direction
27 24 42 19 7 17 2 342 352 8 8 3 5 21 28 34 65 86 103 110 107 94 80 72 71 72 71 70 67 64 61 78 107 112 107 106 115 120 125 117 156 167 170
41 23 36 15 6 8 355 359 14 9 9 17 10 13 12 20 52 94 119 121 117 105 93 85 88 85 78 77 74 72 73 78 96 104 105 103 102 110 136 135 159 153 161
40 29 22 15 4 12 14 5 13 5 7 26 15 12 25 14 8 66 101 136 130 120 111 105 106 103 89 85 88 81 79 85 88 96 99 97 94 109 144 163 172 158 161
45 30 11 10 14 13 8 360 19 15 7 9 5 3 31 28 12 29 42 94 117 121 124 123 117 120 107 97 98 94 87 92 91 88 87 91 89 99 134 151 165 168 171
38 39 13 13 22 14 4 8 24 14 5 354 346 21 36 46 8 26 30 52 80 93 102 132 129 126 120 107 101 103 97 101 100 100 89 78 80 79 121 155 168 175 170
30 33 23 23 24 17 6 12 18 11 2 349 0 16 38 85 49 38 28 34 49 69 84 108 136 127 122 108 96 95 97 98 107 104 104 89 81 73 117 159 169 172 171
19 23 26 22 22 24 12 13 14 10 354 356 17 358 3 54 61 68 46 35 37 49 58 71 82 93 119 116 86 84 81 82 98 148 138 94 62 51 295 187 179 178 175
17 18 29 24 24 19 16 11 20 9 353 6 22 27 12 2 360 50 65 64 44 34 40 59 66 74 87 103 96 78 63 52 32 263 188 159 126 50 348 227 193 181 179
30 18 19 17 13 34 23 2 23 23 0 352 26 53 53 10 325 350 27 53 54 35 26 41 57 59 68 81 91 69 51 37 17 332 209 194 185 182 247 263 209 190 183
55 20 9 11 21 33 23 7 38 11 14 355 354 14 49 93 79 343 346 13 32 45 40 45 40 46 58 77 82 72 58 41 22 28 55 182 191 187 185 215 202 182 180
52 26 5 23 30 29 26 20 26 23 22 14 4 358 2 359 2 75 344 343 5 18 34 50 56 48 51 73 81 66 58 39 24 29 28 22 351 351 290 249 222 199 191
28 31 18 30 40 34 29 8 21 34 32 15 10 19 20 16 7 22 356 345 354 329 9 44 56 53 47 74 67 67 50 37 22 23 19 7 358 327 298 264 225 210 205
36 23 24 27 30 23 32 11 21 18 32 17 23 16 13 18 14 17 26 347 330 310 4 28 51 58 44 76 80 71 42 45 34 20 8 360 356 329 313 278 226 209 212
63 32 25 41 34 24 24 22 22 13 18 16 20 17 7 10 20 27 40 25 351 347 1 354 352 43 27 77 96 115 5 357 25 358 354 347 345 335 328 322 290 251 242
63 45 25 48 49 34 23 23 21 8 13 22 5 5 9 8 15 14 19 46 68 356 327 331 358 336 344 64 97 266 265 243 238 275 298 319 317 317 317 311 309 291 273
52 49 37 37 44 30 23 29 20 6 10 11 6 11 6 360 5 2 358 4 30 163 281 296 303 299 344 356 329 306 336 210 256 269 278 297 307 299 291 287 288 282 269
56 49 47 44 44 29 21 28 12 8 3 356 355 11 4 8 5 349 355 3 359 18 312 305 318 322 345 325 322 294 267 236 263 266 264 264 279 292 290 280 275 273 270
45 46 42 38 36 32 22 14 1 6 0 356 354 10 12 13 5 353 353 348 346 339 338 312 310 322 325 310 289 293 297 286 271 261 247 258 264 270 279 277 269 263 261
47 56 46 42 37 21 14 5 7 358 353 356 359 7 10 22 6 352 354 355 350 349 345 330 311 308 303 310 322 317 311 300 293 282 252 254 262 269 266 269 263 253 250
38 53 48 46 44 29 18 9 3 355 353 359 7 10 17 29 15 2 358 350 347 342 337 336 321 320 314 307 323 306 309 298 290 294 291 268 254 256 260 259 259 252 245
22 25 42 39 41 38 26 19 357 351 349 354 6 9 24 34 27 17 7 349 347 337 333 335 324 328 324 330 320 303 306 299 288 275 289 286 272 263 260 258 255 256 248
13 9 29 52 46 35 33 22 4 345 337 344 353 355 2 18 12 6 355 346 340 333 322 318 313 312 307 309 317 321 316 317 304 297 303 292 288 280 268 247 240 243 247
27 8 16 51 69 52 27 9 357 337 320 328 340 351 355 19 18 356 340 332 335 330 323 301 298 297 297 302 310 309 301 294 281 275 287 285 282 278 274 267 250 242 240
77 42 25 34 74 49 20 11 351 328 318 337 357 14 24 23 10 358 341 342 336 329 316 308 292 287 292 291 280 277 276 286 286 282 264 272 273 271 278 273 257 248 240
47 335 139 65 95 64 39 21 356 325 325 343 11 24 22 21 358 354 346 335 327 319 320 319 307 299 298 299 296 299 296 297 296 288 275 270 278 282 275 272 269 254 247
358 326 357 35 87 91 73 32 4 336 335 339 356 21 24 5 347 348 341 328 319 313 320 318 311 305 299 295 298 280 272 288 295 294 289 289 292 301 294 276 270 264 260